Lincoln, NE

10:45 AM CST on December 08, 2019 (GMT -0600)
Lincoln Municipal

Weather History for KLNK - October, 2019

Change the Weather History Date:

Monday, October 21, 2019

  Actual Average Record
Temperature  
Mean Temperature 49 °F 51 °F  
Max Temperature 55 °F 64 °F 89 °F (1899)
Min Temperature 42 °F 39 °F 20 °F (1987)
Degree Days  
Heating Degree Days 16 14  
Month to date heating degree days 244 219  
Since 1 July heating degree days 252 317  
Cooling Degree Days 0 0  
Month to date cooling degree days 1 12  
Year to date cooling degree days 1332 1170  
Moisture  
Dew Point 36 °F    
Average Humidity 63    
Maximum Humidity 76    
Minimum Humidity 50    
Precipitation  
Precipitation 0.01 in 0.07 in 0.75 in (1941)
Month to date precipitation 4.62 1.42  
Year to date precipitation 32.68 26.02  
Snow  
Snow 0.00 in 0.00 in T in (2006)
Month to date snowfall 0.0 0.3  
Since 1 July snowfall 0.0 0.3  
Since 1 September snowfall 0.0 0.3  
Snow Depth 0.00 in    
Sea Level Pressure  
Sea Level Pressure 29.58 in    
Wind  
Wind Speed 19 mph (WNW)    
Max Wind Speed 35 mph    
Max Gust Speed 45 mph    
Visibility 10 miles    
Events Rain    
T = Trace of Precipitation, MM = Missing Value Source: NWS Daily Summary

Daily Weather History Graph

Daily Weather History Graph

Search for Another Location

Airport or City:

Astronomy

Oct. 21, 2019 Rise Set
Actual Time 7:44 AM CDT 6:37 PM CDT
Civil Twilight 7:16 AM CDT 7:05 PM CDT
Nautical Twilight 6:44 AM CDT 7:37 PM CDT
Astronomical Twilight 6:13 AM CDT 8:09 PM CDT
Moon No Moon Rise 3:05 PM CDT (10/21)
Length of Visible Light 11h 48m
Length of Day
10h 53m
Waning Gibbous, 48% of the Moon is Illuminated
Oct 21
Waning Gibbous
Oct 27
New
Nov 4
First Quarter
Nov 12
Full
Nov 19
Last Quarter

Hourly Weather History & Observations

Time (CDT) Temp. Windchill Dew Point Humidity Pressure Visibility Wind Dir Wind Speed Gust Speed Precip Events Conditions
12:54 AM 51.1 °F - 33.1 °F 50% 29.50 in 10.0 mi WSW 12.7 mph - N/A   Clear
1:54 AM 48.9 °F - 34.0 °F 56% 29.47 in 10.0 mi WSW 11.5 mph - N/A   Clear
2:54 AM 46.9 °F - 34.0 °F 61% 29.47 in 10.0 mi WSW 11.5 mph - N/A   Clear
3:54 AM 45.0 °F 37.9 °F 34.0 °F 65% 29.46 in 10.0 mi WSW 16.1 mph - N/A   Clear
4:54 AM 44.1 °F 37.4 °F 36.0 °F 73% 29.46 in 10.0 mi WSW 13.8 mph - N/A   Clear
5:54 AM 43.0 °F 36.8 °F 36.0 °F 76% 29.46 in 10.0 mi West 11.5 mph - N/A   Clear
6:54 AM 43.0 °F 35.7 °F 34.0 °F 71% 29.45 in 10.0 mi West 15.0 mph - N/A   Clear
7:34 AM 42.1 °F 35.7 °F 34.0 °F 73% 29.44 in 10.0 mi West 11.5 mph - N/A   Mostly Cloudy
7:54 AM 42.1 °F 36.1 °F 34.0 °F 73% 29.44 in 10.0 mi West 10.4 mph - N/A   Overcast
8:54 AM 44.1 °F 36.8 °F 34.0 °F 68% 29.45 in 10.0 mi WNW 16.1 mph 25.3 mph N/A   Overcast
9:54 AM 46.0 °F 38.5 °F 35.1 °F 66% 29.46 in 10.0 mi West 19.6 mph 28.8 mph N/A   Overcast
10:54 AM 48.0 °F - 36.0 °F 63% 29.48 in 10.0 mi WNW 21.9 mph 29.9 mph N/A   Overcast
11:54 AM 51.1 °F - 39.0 °F 63% 29.47 in 10.0 mi WNW 21.9 mph 38.0 mph N/A   Mostly Cloudy
12:39 PM 54.0 °F - 39.9 °F 59% 29.47 in 10.0 mi NW 27.6 mph 40.3 mph N/A   Mostly Cloudy
12:54 PM 54.0 °F - 41.0 °F 62% 29.48 in 10.0 mi NW 26.5 mph 39.1 mph 0.00 in Rain Light Rain
1:54 PM 51.1 °F - 39.9 °F 66% 29.54 in 10.0 mi WNW 24.2 mph 35.7 mph 0.00 in   Overcast
2:54 PM 51.1 °F - 39.0 °F 63% 29.56 in 10.0 mi West 20.7 mph 31.1 mph N/A   Overcast
3:07 PM 51.1 °F - 37.9 °F 61% 29.56 in 10.0 mi West 20.7 mph 36.8 mph N/A   Overcast
3:54 PM 51.1 °F - 37.9 °F 61% 29.59 in 10.0 mi West 27.6 mph 41.4 mph N/A   Overcast
4:54 PM 51.1 °F - 37.9 °F 61% 29.62 in 10.0 mi WNW 21.9 mph 39.1 mph N/A   Overcast
5:54 PM 50.0 °F - 37.0 °F 61% 29.67 in 10.0 mi WNW 25.3 mph 40.3 mph N/A   Overcast
6:51 PM 46.4 °F 38.7 °F 39.2 °F 76% 29.71 in 10.0 mi WNW 20.7 mph 34.5 mph 0.00 in   Overcast
6:54 PM 46.9 °F - 39.0 °F 74% 29.72 in 10.0 mi WNW 23.0 mph 34.5 mph 0.00 in Rain Light Rain
7:08 PM 48.0 °F - 39.0 °F 71% 29.72 in 10.0 mi WNW 23.0 mph 32.2 mph 0.01 in   Overcast
7:54 PM 48.0 °F - 37.9 °F 68% 29.75 in 10.0 mi WNW 25.3 mph 40.3 mph 0.01 in   Overcast
8:54 PM 48.0 °F - 37.0 °F 66% 29.78 in 10.0 mi WNW 20.7 mph 38.0 mph N/A   Mostly Cloudy
9:38 PM 46.9 °F - 37.0 °F 68% 29.78 in 10.0 mi WNW 26.5 mph 38.0 mph N/A   Scattered Clouds
9:54 PM 46.9 °F - 36.0 °F 66% 29.80 in 10.0 mi WNW 21.9 mph 38.0 mph N/A   Scattered Clouds
10:54 PM 46.9 °F - 34.0 °F 61% 29.83 in 10.0 mi NW 21.9 mph 36.8 mph N/A   Partly Cloudy
11:54 PM 46.9 °F - 30.9 °F 54% 29.84 in 10.0 mi WNW 19.6 mph 31.1 mph N/A   Clear